DW7572 Weather Reports


time (UTC)temp
C
wind
direction
speed
KPH
gust
KPH
rain 1hr
cm
rain 24hr
cm
rain mn
cm
humidity
%
barometer
mb
20260905081517 20 68 4.8 9.7 0.00 0.00 0.00 96 1015.3
20260905080516 20 68 6.4 9.7 0.00 0.00 0.00 96 1015.2
20260905075537 20 45 6.4 9.7 0.00 0.00 0.00 96 1015.2
20260905074517 20 45 8.0 9.7 0.00 0.00 0.00 96 1015.1
20260905073537 21 45 8.0 11.3 0.00 0.00 0.00 96 1015.3
20260905072517 21 68 8.0 12.9 0.00 0.00 0.00 96 1015.3
20260905071516 21 68 8.0 12.9 0.00 0.00 0.00 96 1015.1
20260905070517 21 68 8.0 12.9 0.00 0.00 0.00 95 1015.2
20260905065517 21 68 8.0 14.5 0.00 0.00 0.00 96 1015.2
20260905064516 21 68 8.0 11.3 0.00 0.00 0.00 95 1015.1
20260905063517 21 68 4.8 8.0 0.00 0.00 0.00 95 1015.2
20260905062517 21 68 8.0 12.9 0.00 0.00 0.00 95 1015.2
20260905061521 21 68 6.4 9.7 0.00 0.00 0.00 95 1015.1
20260905060517 21 45 6.4 9.7 0.00 0.00 0.00 95 1015.1
20260905055516 21 68 8.0 11.3 0.00 0.00 0.00 95 1015.1
20260905054516 21 68 6.4 9.7 0.00 0.00 0.00 95 1015.0
20260905053517 21 68 4.8 6.4 0.00 0.00 0.00 95 1014.9
20260905052516 21 68 4.8 6.4 0.00 0.00 0.00 95 1014.9
20260905051557 22 68 3.2 6.4 0.00 0.00 0.00 95 1014.7
20260905050516 22 68 4.8 11.3 0.00 0.00 0.00 95 1014.6
20260905045517 22 90 4.8 8.0 0.00 0.00 0.00 95 1014.6
20260905044517 22 68 4.8 8.0 0.00 0.00 0.00 95 1014.7
20260905043538 22 68 4.8 6.4 0.00 0.00 0.00 95 1014.6
20260905042517 22 68 1.6 4.8 0.00 0.00 0.00 95 1014.7
20260905041517 22 68 3.2 6.4 0.00 0.00 0.00 95 1014.8
20260905040518 22 68 3.2 6.4 0.00 0.00 0.00 95 1014.8
20260905035517 22 68 1.6 3.2 0.00 0.00 0.00 95 1014.7
20260905034517 22 68 1.6 3.2 0.00 0.00 0.00 95 1014.7
20260905033518 22 68 3.2 6.4 0.00 0.00 0.00 95 1014.6
20260905032517 22 68 4.8 8.0 0.00 0.00 0.00 95 1014.4
20260905031517 22 68 3.2 6.4 0.00 0.00 0.00 95 1014.4
20260905030518 22 68 3.2 4.8 0.00 0.00 0.00 94 1014.4
20260905025658 22 68 3.2 6.4 0.00 0.00 0.00 94 1014.3
20260905024518 23 68 4.8 9.7 0.00 0.00 0.00 94 1013.9
20260905023517 23 68 6.4 8.0 0.00 0.00 0.00 93 1014.0
20260905022518 23 45 3.2 8.0 0.00 0.00 0.00 93 1013.9
20260905021517 23 45 6.4 9.7 0.00 0.00 0.00 92 1013.8
20260905020518 23 45 8.0 11.3 0.00 0.00 0.00 93 1013.5
20260905015517 23 45 8.0 11.3 0.00 0.00 0.00 93 1013.4
20260905014517 24 45 8.0 11.3 0.00 0.00 0.00 93 1013.4
20260905013518 24 23 8.0 9.7 0.00 0.00 0.00 93 1013.3
20260905012517 24 23 6.4 9.7 0.00 0.00 0.00 93 1013.2
20260905011518 25 23 6.4 9.7 0.00 0.00 0.00 93 1013.2
20260905010517 25 23 6.4 9.7 0.00 0.00 0.00 92 1013.1
20260905005517 25 45 6.4 9.7 0.00 0.00 0.00 91 1013.0
20260905004537 26 45 8.0 9.7 0.00 0.00 0.00 90 1013.0
20260905003517 26 45 6.4 8.0 0.00 0.00 0.00 90 1013.0
20260905002517 26 45 6.4 8.0 0.00 0.00 0.00 89 1013.1
20260905001516 27 45 8.0 11.3 0.00 0.00 0.00 88 1012.9
20260905000537 27 45 6.4 9.7 0.00 0.00 0.00 87 1013.0
20260904235516 28 45 8.0 14.5 0.00 0.00 0.00 86 1013.0
20260904234516 28 45 8.0 14.5 0.00 0.00 0.00 85 1013.1
20260904233516 28 45 8.0 12.9 0.00 0.00 0.00 84 1013.2
20260904232516 28 45 9.7 12.9 0.00 0.00 0.00 84 1013.1
20260904231517 29 45 8.0 9.7 0.00 0.00 0.00 84 1013.2
20260904230516 29 45 9.7 16.1 0.00 0.00 0.00 83 1013.1
20260904225536 30 45 9.7 16.1 0.00 0.00 0.00 83 1013.1
20260904224516 30 45 8.0 14.5 0.00 0.00 0.00 83 1013.0
20260904223516 30 45 9.7 14.5 0.00 0.00 0.00 82 1012.8
20260904222517 30 45 9.7 14.5 0.00 0.00 0.00 82 1012.8
20260904221537 30 45 9.7 14.5 0.00 0.00 0.00 81 1012.8
20260904220516 30 45 9.7 14.5 0.00 0.00 0.00 81 1012.8
20260904215516 30 45 9.7 14.5 0.00 0.00 0.00 81 1012.8
20260904214516 30 23 11.3 16.1 0.00 0.00 0.00 80 1012.8
20260904213517 30 23 12.9 17.7 0.00 0.00 0.00 80 1012.9
20260904212517 30 23 12.9 17.7 0.00 0.00 0.00 80 1012.8
20260904211516 30 23 12.9 17.7 0.00 0.00 0.00 80 1012.7
20260904210517 29 23 12.9 16.1 0.00 0.00 0.00 80 1012.8
20260904205516 30 23 12.9 16.1 0.00 0.00 0.00 80 1012.8
20260904204536 30 45 12.9 17.7 0.00 0.00 0.00 81 1012.9
20260904203516 30 0 14.5 20.9 0.00 0.00 0.00 80 1012.8
20260904202517 30 23 16.1 22.5 0.00 0.00 0.00 79 1012.8
20260904201517 31 23 14.5 20.9 0.00 0.00 0.00 79 1012.8
20260904200516 30 0 16.1 22.5 0.00 0.00 0.00 79 1012.8
20260904195556 31 0 16.1 22.5 0.00 0.00 0.00 78 1012.8
20260904194517 31 23 14.5 20.9 0.00 0.00 0.00 78 1012.7
20260904193516 31 23 14.5 20.9 0.00 0.00 0.00 78 1012.6
20260904192516 31 45 14.5 22.5 0.00 0.00 0.00 79 1012.6
20260904191516 31 23 14.5 17.7 0.00 0.00 0.00 79 1012.6
20260904190517 31 68 8.0 19.3 0.00 0.00 0.00 77 1012.6
20260904185536 31 45 11.3 17.7 0.00 0.00 0.00 74 1012.6
20260904184516 31 23 11.3 16.1 0.00 0.00 0.00 75 1012.6
20260904183516 31 23 8.0 12.9 0.00 0.00 0.00 74 1012.8
20260904182516 31 45 11.3 19.3 0.00 0.00 0.00 74 1012.9
20260904181516 31 23 9.7 19.3 0.00 0.00 0.00 73 1012.9
20260904180516 31 23 9.7 16.1 0.00 0.00 0.00 73 1012.8
20260904175517 31 0 8.0 14.5 0.00 0.00 0.00 77 1012.7
20260904174537 31 338 9.7 16.1 0.00 0.00 0.00 75 1012.8
20260904173516 30 45 6.4 12.9 0.00 0.00 0.00 78 1012.8
20260904172516 30 0 6.4 14.5 0.00 0.00 0.00 77 1012.8
20260904171536 30 315 8.0 16.1 0.00 0.00 0.00 78 1012.7
20260904170516 29 45 4.8 9.7 0.00 0.00 0.00 81 1012.5
20260904165515 29 23 4.8 9.7 0.00 0.00 0.00 82 1012.6
20260904164516 28 0 3.2 4.8 0.00 0.00 0.00 82 1012.5
20260904163541 28 23 4.8 8.0 0.00 0.00 0.00 83 1012.4
20260904162516 28 315 6.4 16.1 0.00 0.00 0.00 84 1012.4
20260904161516 28 68 3.2 8.0 0.00 0.00 0.00 85 1012.3
20260904160516 27 68 3.2 8.0 0.00 0.00 0.00 84 1012.2
20260904155516 27 45 4.8 8.0 0.00 0.00 0.00 85 1012.1
20260904154515 27 90 3.2 4.8 0.00 0.00 0.00 87 1012.0
20260904153520 27 338 3.2 6.4 0.00 0.00 0.00 85 1012.1
20260904152515 27 293 1.6 6.4 0.00 0.00 0.00 88 1012.0
20260904151516 26 293 3.2 6.4 0.00 0.00 0.00 88 1011.9
20260904150516 26 225 1.6 4.8 0.00 0.00 0.00 89 1011.9
20260904145515 26 225 4.8 6.4 0.00 0.00 0.00 89 1011.9
20260904144515 26 270 1.6 8.0 0.00 0.00 0.00 90 1011.9
20260904143536 25 270 1.6 6.4 0.00 0.00 0.00 90 1011.8
20260904142516 25 270 1.6 9.7 0.00 0.00 0.00 91 1011.8
20260904141515 25 248 3.2 6.4 0.00 0.00 0.00 93 1011.6
20260904140516 25 248 1.6 4.8 0.00 0.00 0.00 94 1011.6
20260904135515 24 203 4.8 9.7 0.00 0.00 0.00 96 1011.6
20260904134517 23 203 4.8 6.4 0.00 0.00 0.00 96 1011.5
20260904133517 23 203 3.2 6.4 0.00 0.00 0.00 97 1011.5
20260904132517 22 203 4.8 6.4 0.00 0.00 0.00 98 1011.5
20260904131517 22 203 6.4 8.0 0.00 0.00 0.00 98 1011.4
20260904130537 22 180 3.2 6.4 0.00 0.00 0.00 98 1011.5
20260904125517 21 180 4.8 8.0 0.00 0.00 0.00 98 1011.4
20260904124517 21 180 4.8 8.0 0.00 0.00 0.00 98 1011.3
20260904123518 21 180 3.2 6.4 0.00 0.00 0.00 98 1011.3
20260904122517 21 0.0 0.0 0.00 0.00 0.00 98 1011.2
20260904121517 21 0.0 0.0 0.00 0.00 0.00 98 1011.1
20260904120518 21 0.0 3.2 0.00 0.00 0.00 98 1011.1
20260904115517 21 0.0 0.0 0.00 0.00 0.00 97 1010.9
20260904114517 21 0.0 0.0 0.00 0.00 0.00 97 1010.8
20260904113517 21 0.0 0.0 0.00 0.00 0.00 97 1010.7
20260904112517 21 0.0 0.0 0.00 0.00 0.00 97 1010.6
20260904111517 21 0.0 1.6 0.00 0.00 0.00 97 1010.5
20260904110518 21 203 3.2 4.8 0.00 0.00 0.00 97 1010.5
20260904105517 21 203 3.2 6.4 0.00 0.00 0.00 97 1010.4
20260904104517 22 203 4.8 6.4 0.00 0.00 0.00 97 1010.4
20260904103558 22 203 4.8 6.4 0.00 0.00 0.00 97 1010.4
20260904102537 22 203 3.2 4.8 0.00 0.00 0.00 97 1010.6
20260904101537 22 203 3.2 4.8 0.00 0.03 0.00 97 1010.6
20260904100517 22 203 3.2 4.8 0.00 0.46 0.00 96 1010.6
20260904095517 22 203 4.8 6.4 0.00 0.61 0.00 96 1010.6
20260904094517 22 203 4.8 6.4 0.00 0.64 0.00 96 1010.5
20260904093517 22 0.0 0.0 0.00 0.64 0.00 96 1010.3
20260904092517 22 0.0 0.0 0.00 0.64 0.00 96 1010.2
20260904091618 22 0.0 0.0 0.00 0.64 0.00 96 1010.2
20260904090516 22 0.0 1.6 0.00 0.64 0.00 96 1010.2
20260904085537 23 203 1.6 3.2 0.00 0.64 0.00 96 1010.0
20260904084537 23 203 4.8 6.4 0.00 0.64 0.00 96 1010.0
20260904083517 23 203 4.8 8.0 0.00 0.64 0.00 96 1010.0
20260904082538 23 203 6.4 8.0 0.00 0.64 0.00 96 1010.0